{"data":{"norad_id":62050,"epoch":"2026-05-25T04:21:15.132960Z","epoch_age_seconds":58553,"freshness":"FRESH","line1":"1 62050U 24216U   26145.18142515  .00012244  00000+0  45362-3 0  9998","line2":"2 62050  43.0002 191.2968 0001370 270.2553  89.8141 15.27588074 85499","mean_motion":15.27588074,"eccentricity":0.000137,"inclination_deg":43.0002,"raan_deg":191.2968,"arg_perigee_deg":270.2553,"mean_anomaly_deg":89.8141,"bstar":0.00045362,"rev_number":8549,"period_min":94.266250470871,"perigee_km":482.08494050254,"apogee_km":483.96489886853,"semimajor_km":6861.1619196855,"source":"CELESTRAK","updated_at":"2026-05-25T13:38:19.527750Z"}}